Home > Weather > Coeur d'Alene > Past weeks

Flag for USA Past Weather in Coeur d'Alene, Idaho, USA — Yesterday and Last 2 Weeks

Now
90 °F

Sunny.


Feels Like: 86 °F
Forecast: 52 / 91 °F
Wind: 5 mph from North

Location: Coeur d'Alene Weather Reporting System

Current Time: Aug 29, 2016 at 4:40:37 PM

Latest Report: Aug 29, 2016 at 3:55 PM


Visibility: 10 mi

Pressure: 29.92 "Hg (27.80 "Hg at 655m altitude)

Humidity: 21%

Dew Point: 45 °F

Location of Coeur d'AleneLocation

Past Weather in Coeur d'Alene — Graph

°F

Coeur d'Alene Temperature Yesterday

Maximum temperature yesterday: 79 °F (at 2:55 PM)
Minimum temperature yesterday: 54 °F (at 4:35 AM)
Average temperature yesterday: 67 °F

High & Low Weather Summary for the Past Weeks

 TemperatureHumidityPressure
High93 °F (Aug 16, 3:55 PM)88% (Aug 23, 5:35 AM)30.24 "Hg (Aug 23, 5:35 AM)
Low48 °F (Aug 20, 3:55 AM)10% (Aug 22, 5:15 AM)29.65 "Hg (Aug 21, 6:35 PM)
Average71 °F39%29.98 "Hg
* Reported Aug 14 3:15 PM — Aug 29 3:35 PM, Coeur d'Alene, Weather by CustomWeather, © 2016

Note: Actual official high and low records may vary slightly from our data, if they occured in-between our weather recording intervals... More about our weather records

Advertising

Coeur d'Alene Weather History for the Previous 24 Hours

Scroll right to see more
 ConditionsComfort  
Time TempWeatherWind HumidityBarometerVisibility
3:35 PM
Mon, Aug 29
90 °FSunny.No wind20%29.92 "Hg10 mi
3:15 PM91 °FSunny.3 mph20%29.93 "Hg10 mi
2:55 PM90 °FSunny.5 mph22%29.94 "Hg10 mi
2:35 PM90 °FSunny.10 mph21%29.94 "Hg10 mi
2:15 PM90 °FSunny.9 mph22%29.96 "Hg10 mi
1:55 PM88 °FSunny.9 mph24%29.96 "Hg10 mi
1:35 PM88 °FSunny.15 mph24%29.97 "Hg10 mi
1:15 PM86 °FSunny.13 mph25%29.97 "Hg10 mi
12:55 PM84 °FSunny.15 mph27%29.98 "Hg10 mi
12:35 PM82 °FSunny.15 mph28%29.99 "Hg10 mi
12:15 PM82 °FSunny.16 mph26%30.00 "Hg10 mi
11:55 AM81 °FSunny.18 mph30%30.01 "Hg10 mi
11:35 AM79 °FSunny.14 mph30%30.02 "Hg10 mi
11:15 AM79 °FSunny.15 mph28%30.04 "Hg10 mi
10:55 AM75 °FSunny.15 mph34%30.05 "Hg10 mi
10:35 AM73 °FSunny.14 mph36%30.06 "Hg10 mi
10:15 AM70 °FSunny.16 mph38%30.07 "Hg10 mi
9:55 AM72 °FSunny.15 mph38%30.07 "Hg10 mi
9:35 AM68 °FSunny.14 mph40%30.08 "Hg10 mi
9:15 AM68 °FSunny.14 mph40%30.08 "Hg10 mi
8:55 AM66 °FSunny.15 mph46%30.08 "Hg10 mi
8:35 AM64 °FSunny.17 mph49%30.09 "Hg10 mi
8:15 AM63 °FSunny.15 mph52%30.09 "Hg10 mi
7:55 AM61 °FSunny.12 mph52%30.09 "Hg10 mi
7:35 AM59 °FSunny.13 mph48%30.09 "Hg10 mi
7:15 AM57 °FSunny.10 mph59%30.09 "Hg10 mi
6:55 AM57 °FClear.9 mph59%30.09 "Hg10 mi
6:35 AM55 °FClear.12 mph63%30.09 "Hg10 mi
6:15 AM55 °FClear.10 mph63%30.09 "Hg10 mi
5:55 AM54 °FClear.10 mph67%30.09 "Hg10 mi
5:35 AM54 °FClear.8 mph67%30.09 "Hg10 mi
5:15 AM54 °FClear.8 mph63%30.08 "Hg10 mi
4:55 AM55 °FClear.9 mph59%30.09 "Hg10 mi
4:35 AM55 °FClear.7 mph59%30.09 "Hg10 mi
4:15 AM55 °FClear.9 mph59%30.09 "Hg10 mi
3:55 AM55 °FClear.6 mph63%30.10 "Hg10 mi
3:35 AM55 °FClear.7 mph67%30.10 "Hg10 mi
3:15 AM55 °FClear.8 mph67%30.10 "Hg10 mi
2:55 AM55 °FClear.5 mph63%30.10 "Hg10 mi
2:35 AM54 °FClear.3 mph63%30.10 "Hg10 mi
2:15 AM55 °FClear.5 mph59%30.10 "Hg10 mi
1:55 AM57 °FClear.6 mph55%30.10 "Hg10 mi
1:35 AM57 °FClear.5 mph55%30.09 "Hg10 mi
1:15 AM57 °FClear.6 mph59%30.10 "Hg10 mi
12:55 AM57 °FClear.5 mph51%30.10 "Hg10 mi
12:35 AM57 °FClear.3 mph51%30.09 "Hg10 mi
12:15 AM57 °FClear.No wind51%30.09 "Hg10 mi
11:55 PM
Sun, Aug 28
57 °FClear.No wind48%30.09 "Hg10 mi
11:35 PM57 °FClear.3 mph51%30.09 "Hg10 mi
11:15 PM57 °FClear.No wind48%30.09 "Hg10 mi
10:55 PM57 °FClear.3 mph51%30.09 "Hg10 mi
10:35 PM61 °FClear.6 mph42%30.09 "Hg10 mi
10:15 PM61 °FClear.5 mph42%30.08 "Hg10 mi
9:55 PM63 °FClear.6 mph49%30.08 "Hg10 mi
9:35 PM63 °FClear.No wind45%30.08 "Hg10 mi
9:15 PM64 °FClear.No wind37%30.08 "Hg10 mi
8:55 PM64 °FClear.6 mph40%30.08 "Hg10 mi
8:35 PM66 °FClear.5 mph37%30.07 "Hg10 mi
8:15 PM70 °FSunny.No wind31%30.06 "Hg10 mi
7:55 PM72 °FSunny.No wind29%30.06 "Hg10 mi
7:35 PM73 °FSunny.No wind29%30.05 "Hg10 mi
7:15 PM77 °FSunny.No wind22%30.05 "Hg10 mi
6:55 PM79 °FSunny.3 mph23%30.05 "Hg10 mi
6:35 PM79 °FSunny.5 mph23%30.04 "Hg10 mi
6:15 PM79 °FSunny.N/A23%30.05 "Hg10 mi
5:55 PM79 °FSunny.N/A23%30.05 "Hg10 mi
5:35 PM79 °FSunny.N/A23%30.05 "Hg10 mi
5:15 PM79 °FSunny.9 mph24%30.05 "Hg10 mi
4:55 PM79 °FSunny.3 mph24%30.05 "Hg10 mi
4:35 PM79 °FSunny.7 mph24%30.05 "Hg10 mi
4:15 PM79 °FSunny.No wind24%30.05 "Hg10 mi
Weather by CustomWeather, © 2016

See weather overviewHow to use our weather pages